| time (UTC) | temp F | wind direction | speed MPH | gust MPH | rain 1hr in | rain 24hr in | rain mn in | humidity % | barometer mb |
| 20260902080549 | 82 | 176 | 2.0 | 4.0 | 0.00 | 0.00 | 0.00 | 38 | 1012.6 |
| 20260902080049 | 82 | 176 | 1.0 | 4.0 | 0.00 | 0.00 | 0.00 | 38 | 1012.7 |
| 20260902075547 | 82 | 176 | 1.0 | 3.0 | 0.00 | 0.00 | 0.00 | 38 | 1012.7 |
| 20260902075047 | 82 | 176 | 2.0 | 3.0 | 0.00 | 0.00 | 0.00 | 37 | 1012.7 |
| 20260902074546 | 82 | 176 | 1.0 | 3.0 | 0.00 | 0.00 | 0.00 | 37 | 1012.7 |
| 20260902074045 | 82 | 176 | 1.0 | 5.0 | 0.00 | 0.00 | 0.00 | 37 | 1012.7 |
| 20260902073547 | 83 | 176 | 2.0 | 5.0 | 0.00 | 0.00 | 0.00 | 37 | 1012.6 |
| 20260902072546 | 83 | 179 | 2.0 | 4.0 | 0.00 | 0.00 | 0.00 | 37 | 1012.6 |
| 20260902072046 | 83 | 179 | 2.0 | 4.0 | 0.00 | 0.00 | 0.00 | 37 | 1012.7 |
| 20260902071544 | 83 | 179 | 2.0 | 4.0 | 0.00 | 0.00 | 0.00 | 36 | 1012.6 |
| 20260902071043 | 83 | 179 | 1.0 | 3.0 | 0.00 | 0.00 | 0.00 | 36 | 1012.7 |
| 20260902070542 | 83 | 179 | 2.0 | 4.0 | 0.00 | 0.00 | 0.00 | 36 | 1012.7 |
| 20260902070044 | 83 | 179 | 2.0 | 4.0 | 0.00 | 0.00 | 0.00 | 36 | 1012.7 |
| 20260902065546 | 83 | 179 | 2.0 | 4.0 | 0.00 | 0.00 | 0.00 | 36 | 1012.6 |
| 20260902065042 | 83 | 181 | 2.0 | 4.0 | 0.00 | 0.00 | 0.00 | 36 | 1012.5 |
| 20260902064543 | 83 | 181 | 2.0 | 4.0 | 0.00 | 0.00 | 0.00 | 36 | 1012.5 |
| 20260902064042 | 84 | 181 | 2.0 | 4.0 | 0.00 | 0.00 | 0.00 | 36 | 1012.4 |
| 20260902063542 | 84 | 181 | 1.0 | 4.0 | 0.00 | 0.00 | 0.00 | 36 | 1012.4 |
| 20260902062541 | 84 | 183 | 1.0 | 3.0 | 0.00 | 0.00 | 0.00 | 35 | 1012.4 |
| 20260902062039 | 84 | 183 | 2.0 | 5.0 | 0.00 | 0.00 | 0.00 | 35 | 1012.4 |
| 20260902061600 | 84 | 183 | 1.0 | 4.0 | 0.00 | 0.00 | 0.00 | 35 | 1012.4 |
| 20260902061048 | 84 | 183 | 2.0 | 4.0 | 0.00 | 0.00 | 0.00 | 35 | 1012.3 |
| 20260902060538 | 84 | 183 | 2.0 | 5.0 | 0.00 | 0.00 | 0.00 | 34 | 1012.4 |
| 20260902060042 | 84 | 184 | 1.0 | 5.0 | 0.00 | 0.00 | 0.00 | 34 | 1012.4 |
| 20260902055538 | 85 | 184 | 2.0 | 6.0 | 0.00 | 0.00 | 0.00 | 34 | 1012.4 |
| 20260902055037 | 85 | 191 | 2.0 | 8.0 | 0.00 | 0.00 | 0.00 | 34 | 1012.3 |
| 20260902054537 | 85 | 190 | 3.0 | 8.0 | 0.00 | 0.00 | 0.00 | 34 | 1012.3 |
| 20260902054036 | 85 | 179 | 5.0 | 7.0 | 0.00 | 0.00 | 0.00 | 34 | 1012.2 |
| 20260902053536 | 85 | 192 | 4.0 | 8.0 | 0.00 | 0.00 | 0.00 | 33 | 1012.2 |
| 20260902052534 | 85 | 195 | 2.0 | 5.0 | 0.00 | 0.00 | 0.00 | 33 | 1012.4 |
| 20260902052033 | 85 | 196 | 2.0 | 5.0 | 0.00 | 0.00 | 0.00 | 33 | 1012.5 |
| 20260902051550 | 85 | 196 | 4.0 | 5.0 | 0.00 | 0.00 | 0.00 | 33 | 1012.5 |
| 20260902051032 | 85 | 167 | 2.0 | 5.0 | 0.00 | 0.00 | 0.00 | 33 | 1012.6 |
| 20260902050531 | 85 | 167 | 1.0 | 4.0 | 0.00 | 0.00 | 0.00 | 33 | 1012.6 |
| 20260902050033 | 85 | 166 | 1.0 | 5.0 | 0.00 | 0.00 | 0.00 | 33 | 1012.6 |
| 20260902045530 | 85 | 166 | 2.0 | 5.0 | 0.00 | 0.00 | 0.00 | 32 | 1012.5 |
| 20260902045029 | 86 | 181 | 1.0 | 3.0 | 0.00 | 0.00 | 0.00 | 32 | 1012.5 |
| 20260902044558 | 86 | 181 | 2.0 | 5.0 | 0.00 | 0.00 | 0.00 | 32 | 1012.6 |
| 20260902044032 | 86 | 181 | 3.0 | 5.0 | 0.00 | 0.00 | 0.00 | 31 | 1012.6 |
| 20260902043528 | 86 | 181 | 2.0 | 5.0 | 0.00 | 0.00 | 0.00 | 31 | 1012.6 |
| 20260902042529 | 86 | 159 | 2.0 | 5.0 | 0.00 | 0.00 | 0.00 | 31 | 1012.6 |
| 20260902042029 | 86 | 157 | 2.0 | 3.0 | 0.00 | 0.00 | 0.00 | 31 | 1012.5 |
| 20260902041534 | 87 | 157 | 2.0 | 4.0 | 0.00 | 0.00 | 0.00 | 30 | 1012.5 |
| 20260902041028 | 87 | 157 | 2.0 | 4.0 | 0.00 | 0.00 | 0.00 | 30 | 1012.6 |
| 20260902040528 | 87 | 156 | 2.0 | 4.0 | 0.00 | 0.00 | 0.00 | 30 | 1012.4 |
| 20260902040029 | 87 | 195 | 2.0 | 4.0 | 0.00 | 0.00 | 0.00 | 30 | 1012.5 |
| 20260902035529 | 87 | 195 | 2.0 | 4.0 | 0.00 | 0.00 | 0.00 | 30 | 1012.4 |
| 20260902035032 | 88 | 196 | 2.0 | 5.0 | 0.00 | 0.00 | 0.00 | 29 | 1012.4 |
| 20260902034528 | 88 | 196 | 2.0 | 6.0 | 0.00 | 0.00 | 0.00 | 29 | 1012.3 |
| 20260902034028 | 88 | 191 | 2.0 | 9.0 | 0.00 | 0.00 | 0.00 | 29 | 1012.3 |
| 20260902033527 | 88 | 181 | 3.0 | 6.0 | 0.00 | 0.00 | 0.00 | 29 | 1012.3 |
| 20260902032529 | 88 | 186 | 2.0 | 5.0 | 0.00 | 0.00 | 0.00 | 28 | 1012.1 |
| 20260902032025 | 88 | 153 | 2.0 | 5.0 | 0.00 | 0.00 | 0.00 | 28 | 1012.0 |
| 20260902031542 | 88 | 160 | 2.0 | 5.0 | 0.00 | 0.00 | 0.00 | 28 | 1011.9 |
| 20260902031025 | 88 | 158 | 2.0 | 5.0 | 0.00 | 0.00 | 0.00 | 28 | 1011.8 |
| 20260902030527 | 88 | 162 | 2.0 | 5.0 | 0.00 | 0.00 | 0.00 | 28 | 1011.7 |
| 20260902030025 | 88 | 178 | 2.0 | 4.0 | 0.00 | 0.00 | 0.00 | 27 | 1011.6 |
| 20260902025526 | 89 | 179 | 2.0 | 5.0 | 0.00 | 0.00 | 0.00 | 27 | 1011.5 |
| 20260902025025 | 89 | 179 | 2.0 | 5.0 | 0.00 | 0.00 | 0.00 | 26 | 1011.4 |
| 20260902024524 | 89 | 178 | 2.0 | 4.0 | 0.00 | 0.00 | 0.00 | 26 | 1011.1 |
| 20260902024023 | 90 | 179 | 2.0 | 4.0 | 0.00 | 0.00 | 0.00 | 26 | 1011.1 |
| 20260902023524 | 90 | 183 | 2.0 | 6.0 | 0.00 | 0.00 | 0.00 | 26 | 1011.0 |
| 20260902023029 | 90 | 183 | 3.0 | 6.0 | 0.00 | 0.00 | 0.00 | 26 | 1011.0 |
| 20260902022524 | 90 | 191 | 2.0 | 4.0 | 0.00 | 0.00 | 0.00 | 25 | 1010.8 |
| 20260902022024 | 90 | 191 | 2.0 | 4.0 | 0.00 | 0.00 | 0.00 | 25 | 1010.7 |
| 20260902021524 | 91 | 191 | 2.0 | 4.0 | 0.00 | 0.00 | 0.00 | 25 | 1010.6 |
| 20260902021026 | 91 | 191 | 2.0 | 3.0 | 0.00 | 0.00 | 0.00 | 25 | 1010.5 |
| 20260902020523 | 91 | 191 | 2.0 | 4.0 | 0.00 | 0.00 | 0.00 | 25 | 1010.3 |
| 20260902015521 | 92 | 191 | 2.0 | 4.0 | 0.00 | 0.00 | 0.00 | 24 | 1010.2 |
| 20260902015021 | 92 | 191 | 2.0 | 5.0 | 0.00 | 0.00 | 0.00 | 24 | 1010.3 |
| 20260902014521 | 92 | 191 | 3.0 | 5.0 | 0.00 | 0.00 | 0.00 | 23 | 1010.1 |
| 20260902014020 | 93 | 191 | 3.0 | 6.0 | 0.00 | 0.00 | 0.00 | 23 | 1010.0 |
| 20260902013522 | 93 | 187 | 3.0 | 6.0 | 0.00 | 0.00 | 0.00 | 23 | 1010.0 |
| 20260902013023 | 93 | 180 | 3.0 | 6.0 | 0.00 | 0.00 | 0.00 | 22 | 1009.9 |
| 20260902012521 | 94 | 152 | 3.0 | 6.0 | 0.00 | 0.00 | 0.00 | 22 | 1009.8 |
| 20260902012020 | 94 | 187 | 3.0 | 10.0 | 0.00 | 0.00 | 0.00 | 22 | 1009.8 |
| 20260902011528 | 94 | 194 | 5.0 | 10.0 | 0.00 | 0.00 | 0.00 | 22 | 1009.7 |
| 20260902011021 | 94 | 193 | 4.0 | 12.0 | 0.00 | 0.00 | 0.00 | 21 | 1009.8 |
| 20260902010520 | 95 | 188 | 7.0 | 12.0 | 0.00 | 0.00 | 0.00 | 21 | 1009.8 |
| 20260902010020 | 95 | 196 | 6.0 | 12.0 | 0.00 | 0.00 | 0.00 | 21 | 1009.8 |
| 20260902005519 | 95 | 175 | 7.0 | 11.0 | 0.00 | 0.00 | 0.00 | 21 | 1009.7 |
| 20260902005022 | 95 | 218 | 8.0 | 11.0 | 0.00 | 0.00 | 0.00 | 21 | 1009.7 |
| 20260902004520 | 95 | 213 | 6.0 | 10.0 | 0.00 | 0.00 | 0.00 | 21 | 1009.7 |
| 20260902004018 | 96 | 200 | 4.0 | 13.0 | 0.00 | 0.00 | 0.00 | 21 | 1009.7 |
| 20260902003519 | 96 | 227 | 8.0 | 13.0 | 0.00 | 0.00 | 0.00 | 20 | 1009.7 |
| 20260902002523 | 96 | 181 | 6.0 | 13.0 | 0.00 | 0.00 | 0.00 | 20 | 1009.6 |
| 20260902002018 | 96 | 206 | 7.0 | 13.0 | 0.00 | 0.00 | 0.00 | 20 | 1009.5 |
| 20260902001519 | 96 | 191 | 6.0 | 13.0 | 0.00 | 0.00 | 0.00 | 20 | 1009.5 |
| 20260902001018 | 97 | 206 | 8.0 | 12.0 | 0.00 | 0.00 | 0.00 | 20 | 1009.6 |
| 20260902000518 | 97 | 197 | 6.0 | 11.0 | 0.00 | 0.00 | 0.00 | 20 | 1009.5 |
| 20260902000018 | 97 | 200 | 7.0 | 11.0 | 0.00 | 0.00 | 0.00 | 20 | 1009.4 |
| 20260901235518 | 97 | 206 | 4.0 | 11.0 | 0.00 | 0.00 | 0.00 | 19 | 1009.4 |
| 20260901235020 | 97 | 196 | 6.0 | 13.0 | 0.00 | 0.00 | 0.00 | 20 | 1009.4 |
| 20260901234517 | 97 | 211 | 5.0 | 13.0 | 0.00 | 0.00 | 0.00 | 20 | 1009.5 |
| 20260901234018 | 97 | 200 | 7.0 | 12.0 | 0.00 | 0.00 | 0.00 | 20 | 1009.5 |
| 20260901233518 | 97 | 220 | 7.0 | 12.0 | 0.00 | 0.00 | 0.00 | 20 | 1009.6 |
| 20260901232518 | 97 | 162 | 6.0 | 10.0 | 0.00 | 0.00 | 0.00 | 20 | 1009.6 |
| 20260901232019 | 96 | 194 | 5.0 | 10.0 | 0.00 | 0.00 | 0.00 | 20 | 1009.6 |
| 20260901231525 | 96 | 181 | 3.0 | 10.0 | 0.00 | 0.00 | 0.00 | 20 | 1009.5 |
| 20260901231017 | 97 | 177 | 6.0 | 10.0 | 0.00 | 0.00 | 0.00 | 20 | 1009.6 |
| 20260901230518 | 97 | 146 | 4.0 | 12.0 | 0.00 | 0.00 | 0.00 | 20 | 1009.5 |
| 20260901230020 | 97 | 185 | 6.0 | 12.0 | 0.00 | 0.00 | 0.00 | 20 | 1009.5 |
| 20260901225519 | 97 | 137 | 8.0 | 15.0 | 0.00 | 0.00 | 0.00 | 20 | 1009.6 |
| 20260901225018 | 97 | 192 | 8.0 | 15.0 | 0.00 | 0.00 | 0.00 | 20 | 1009.5 |
| 20260901224517 | 98 | 110 | 8.0 | 14.0 | 0.00 | 0.00 | 0.00 | 20 | 1009.4 |
| 20260901224021 | 98 | 168 | 7.0 | 16.0 | 0.00 | 0.00 | 0.00 | 20 | 1009.5 |
| 20260901223517 | 98 | 144 | 6.0 | 13.0 | 0.00 | 0.00 | 0.00 | 20 | 1009.6 |
| 20260901222519 | 98 | 154 | 6.0 | 14.0 | 0.00 | 0.00 | 0.00 | 19 | 1009.3 |
| 20260901222022 | 98 | 158 | 8.0 | 14.0 | 0.00 | 0.00 | 0.00 | 19 | 1009.4 |
| 20260901221517 | 98 | 209 | 6.0 | 12.0 | 0.00 | 0.00 | 0.00 | 19 | 1009.6 |
| 20260901221018 | 98 | 168 | 7.0 | 13.0 | 0.00 | 0.00 | 0.00 | 19 | 1009.8 |
| 20260901220516 | 98 | 193 | 7.0 | 13.0 | 0.00 | 0.00 | 0.00 | 19 | 1009.7 |
| 20260901220016 | 98 | 133 | 4.0 | 13.0 | 0.00 | 0.00 | 0.00 | 19 | 1009.7 |
| 20260901215515 | 98 | 179 | 5.0 | 13.0 | 0.00 | 0.00 | 0.00 | 19 | 1009.8 |
| 20260901215015 | 97 | 192 | 8.0 | 11.0 | 0.00 | 0.00 | 0.00 | 19 | 1009.8 |
| 20260901214514 | 98 | 193 | 7.0 | 11.0 | 0.00 | 0.00 | 0.00 | 20 | 1009.8 |
| 20260901214014 | 98 | 206 | 7.0 | 14.0 | 0.00 | 0.00 | 0.00 | 20 | 1009.8 |
| 20260901213515 | 98 | 148 | 5.0 | 14.0 | 0.00 | 0.00 | 0.00 | 19 | 1009.9 |
| 20260901212511 | 98 | 158 | 6.0 | 12.0 | 0.00 | 0.00 | 0.00 | 20 | 1010.1 |
| 20260901212012 | 97 | 183 | 6.0 | 12.0 | 0.00 | 0.00 | 0.00 | 20 | 1010.1 |
| 20260901211513 | 98 | 277 | 6.0 | 14.0 | 0.00 | 0.00 | 0.00 | 19 | 1010.2 |
| 20260901211010 | 98 | 255 | 2.0 | 14.0 | 0.00 | 0.00 | 0.00 | 19 | 1010.3 |
| 20260901210508 | 97 | 189 | 6.0 | 14.0 | 0.00 | 0.00 | 0.00 | 20 | 1010.6 |
| 20260901210013 | 97 | 230 | 10.0 | 14.0 | 0.00 | 0.00 | 0.00 | 20 | 1010.6 |
| 20260901205506 | 97 | 214 | 4.0 | 15.0 | 0.00 | 0.00 | 0.00 | 20 | 1010.6 |
| 20260901205006 | 97 | 218 | 6.0 | 15.0 | 0.00 | 0.00 | 0.00 | 21 | 1010.7 |
| 20260901204508 | 96 | 229 | 5.0 | 17.0 | 0.00 | 0.00 | 0.00 | 21 | 1010.8 |
| 20260901204004 | 96 | 202 | 8.0 | 11.0 | 0.00 | 0.00 | 0.00 | 21 | 1010.9 |
| 20260901203503 | 96 | 139 | 5.0 | 14.0 | 0.00 | 0.00 | 0.00 | 21 | 1010.9 |
| 20260901202501 | 96 | 206 | 2.0 | 8.0 | 0.00 | 0.00 | 0.00 | 21 | 1011.0 |
| 20260901202000 | 95 | 194 | 0.0 | 15.0 | 0.00 | 0.00 | 0.00 | 21 | 1011.1 |
| 20260901201501 | 95 | 180 | 8.0 | 15.0 | 0.00 | 0.00 | 0.00 | 21 | 1011.4 |
| 20260901201100 | 96 | 191 | 11.0 | 15.0 | 0.00 | 0.00 | 0.00 | 20 | 1011.2 |
| 20260901200559 | 96 | 197 | 10.0 | 16.0 | 0.00 | 0.00 | 0.00 | 20 | 1011.3 |
| 20260901200058 | 96 | 158 | 6.0 | 18.0 | 0.00 | 0.00 | 0.00 | 22 | 1011.4 |
| 20260901195558 | 96 | 200 | 11.0 | 16.0 | 0.00 | 0.00 | 0.00 | 21 | 1011.6 |
| 20260901195058 | 96 | 154 | 8.0 | 15.0 | 0.00 | 0.00 | 0.00 | 22 | 1011.7 |
| 20260901194601 | 96 | 221 | 5.0 | 12.0 | 0.00 | 0.00 | 0.00 | 23 | 1011.8 |
| 20260901194057 | 96 | 158 | 6.0 | 14.0 | 0.00 | 0.00 | 0.00 | 22 | 1011.9 |
| 20260901193554 | 96 | 188 | 7.0 | 17.0 | 0.00 | 0.00 | 0.00 | 22 | 1011.9 |
| 20260901193054 | 96 | 180 | 9.0 | 16.0 | 0.00 | 0.00 | 0.00 | 22 | 1012.0 |
| 20260901192555 | 96 | 208 | 9.0 | 23.0 | 0.00 | 0.00 | 0.00 | 24 | 1012.0 |
| 20260901192051 | 95 | 159 | 10.0 | 23.0 | 0.00 | 0.00 | 0.00 | 24 | 1012.1 |
| 20260901191551 | 95 | 196 | 9.0 | 17.0 | 0.00 | 0.00 | 0.00 | 25 | 1012.2 |
| 20260901191051 | 95 | 196 | 9.0 | 17.0 | 0.00 | 0.00 | 0.00 | 24 | 1012.2 |
| 20260901190549 | 95 | 196 | 10.0 | 16.0 | 0.00 | 0.00 | 0.00 | 26 | 1012.3 |
| 20260901185548 | 94 | 202 | 10.0 | 16.0 | 0.00 | 0.00 | 0.00 | 25 | 1012.5 |
| 20260901185046 | 94 | 208 | 10.0 | 16.0 | 0.00 | 0.00 | 0.00 | 26 | 1012.5 |
| 20260901184546 | 93 | 227 | 11.0 | 18.0 | 0.00 | 0.00 | 0.00 | 27 | 1012.4 |
| 20260901184047 | 94 | 212 | 10.0 | 18.0 | 0.00 | 0.00 | 0.00 | 26 | 1012.6 |
| 20260901183543 | 93 | 208 | 10.0 | 17.0 | 0.00 | 0.00 | 0.00 | 27 | 1012.5 |
| 20260901183105 | 93 | 214 | 10.0 | 17.0 | 0.00 | 0.00 | 0.00 | 28 | 1012.7 |
| 20260901182542 | 93 | 202 | 8.0 | 16.0 | 0.00 | 0.00 | 0.00 | 28 | 1012.7 |
| 20260901182041 | 93 | 197 | 10.0 | 17.0 | 0.00 | 0.00 | 0.00 | 28 | 1012.7 |
| 20260901181540 | 92 | 208 | 11.0 | 17.0 | 0.00 | 0.00 | 0.00 | 29 | 1012.9 |
| 20260901181037 | 92 | 201 | 11.0 | 18.0 | 0.00 | 0.00 | 0.00 | 30 | 1013.0 |
| 20260901180536 | 92 | 218 | 11.0 | 18.0 | 0.00 | 0.00 | 0.00 | 29 | 1012.9 |
| 20260901175535 | 92 | 177 | 11.0 | 17.0 | 0.00 | 0.00 | 0.00 | 31 | 1013.0 |
| 20260901175034 | 92 | 193 | 10.0 | 16.0 | 0.00 | 0.00 | 0.00 | 30 | 1013.1 |
| 20260901174534 | 92 | 209 | 9.0 | 14.0 | 0.00 | 0.00 | 0.00 | 31 | 1013.1 |
| 20260901174033 | 91 | 198 | 9.0 | 14.0 | 0.00 | 0.00 | 0.00 | 32 | 1013.1 |
| 20260901173531 | 91 | 202 | 7.0 | 17.0 | 0.00 | 0.00 | 0.00 | 33 | 1013.3 |
| 20260901173030 | 91 | 152 | 9.0 | 17.0 | 0.00 | 0.00 | 0.00 | 34 | 1013.2 |
| 20260901172528 | 90 | 196 | 7.0 | 15.0 | 0.00 | 0.00 | 0.00 | 34 | 1013.4 |
| 20260901172027 | 90 | 201 | 9.0 | 15.0 | 0.00 | 0.00 | 0.00 | 34 | 1013.4 |
| 20260901171533 | 90 | 202 | 10.0 | 15.0 | 0.00 | 0.00 | 0.00 | 34 | 1013.5 |
| 20260901171029 | 90 | 181 | 7.0 | 12.0 | 0.00 | 0.00 | 0.00 | 36 | 1013.5 |
| 20260901170523 | 89 | 191 | 5.0 | 12.0 | 0.00 | 0.00 | 0.00 | 36 | 1013.5 |
| 20260901165522 | 88 | 210 | 8.0 | 12.0 | 0.00 | 0.00 | 0.00 | 37 | 1013.6 |
| 20260901165021 | 88 | 208 | 7.0 | 12.0 | 0.00 | 0.00 | 0.00 | 38 | 1013.7 |
| 20260901164521 | 88 | 187 | 7.0 | 14.0 | 0.00 | 0.00 | 0.00 | 38 | 1013.7 |
| 20260901164019 | 87 | 122 | 5.0 | 14.0 | 0.00 | 0.00 | 0.00 | 39 | 1013.7 |
| 20260901163519 | 87 | 201 | 6.0 | 12.0 | 0.00 | 0.00 | 0.00 | 38 | 1013.8 |
| 20260901163022 | 87 | 191 | 6.0 | 14.0 | 0.00 | 0.00 | 0.00 | 40 | 1013.7 |
| 20260901162518 | 87 | 193 | 7.0 | 14.0 | 0.00 | 0.00 | 0.00 | 40 | 1013.7 |
| 20260901162020 | 87 | 199 | 7.0 | 12.0 | 0.00 | 0.00 | 0.00 | 40 | 1014.0 |
| 20260901161516 | 86 | 206 | 6.0 | 12.0 | 0.00 | 0.00 | 0.00 | 41 | 1013.8 |
| 20260901161016 | 86 | 169 | 5.0 | 11.0 | 0.00 | 0.00 | 0.00 | 42 | 1013.7 |
| 20260901160517 | 85 | 171 | 5.0 | 10.0 | 0.00 | 0.00 | 0.00 | 42 | 1013.7 |
| 20260901155526 | 85 | 155 | 5.0 | 12.0 | 0.00 | 0.00 | 0.00 | 44 | 1013.6 |
| 20260901155025 | 84 | 213 | 7.0 | 11.0 | 0.00 | 0.00 | 0.00 | 44 | 1013.7 |
| 20260901154524 | 84 | 209 | 8.0 | 11.0 | 0.00 | 0.00 | 0.00 | 44 | 1013.7 |
| 20260901154025 | 84 | 191 | 6.0 | 11.0 | 0.00 | 0.00 | 0.00 | 45 | 1013.8 |
| 20260901153523 | 84 | 137 | 6.0 | 11.0 | 0.00 | 0.00 | 0.00 | 45 | 1013.8 |
| 20260901153027 | 83 | 204 | 5.0 | 14.0 | 0.00 | 0.00 | 0.00 | 46 | 1013.7 |
| 20260901152525 | 83 | 203 | 8.0 | 14.0 | 0.00 | 0.00 | 0.00 | 46 | 1013.6 |
| 20260901152022 | 83 | 183 | 5.0 | 14.0 | 0.00 | 0.00 | 0.00 | 47 | 1013.7 |
| 20260901151522 | 82 | 178 | 6.0 | 14.0 | 0.00 | 0.00 | 0.00 | 47 | 1013.9 |
| 20260901151022 | 82 | 195 | 7.0 | 14.0 | 0.00 | 0.00 | 0.00 | 47 | 1013.9 |
| 20260901150523 | 82 | 213 | 8.0 | 14.0 | 0.00 | 0.00 | 0.00 | 47 | 1014.0 |
| 20260901145511 | 82 | 158 | 8.0 | 14.0 | 0.00 | 0.00 | 0.00 | 48 | 1013.9 |
| 20260901145010 | 81 | 185 | 6.0 | 14.0 | 0.00 | 0.00 | 0.00 | 49 | 1014.0 |
| 20260901144510 | 81 | 195 | 7.0 | 13.0 | 0.00 | 0.00 | 0.00 | 49 | 1013.9 |
| 20260901144012 | 81 | 210 | 8.0 | 14.0 | 0.00 | 0.00 | 0.00 | 49 | 1014.0 |
| 20260901143514 | 81 | 199 | 6.0 | 14.0 | 0.00 | 0.00 | 0.00 | 49 | 1014.0 |
| 20260901143012 | 80 | 196 | 6.0 | 16.0 | 0.00 | 0.00 | 0.00 | 50 | 1014.0 |
| 20260901142509 | 80 | 191 | 9.0 | 15.0 | 0.00 | 0.00 | 0.00 | 50 | 1014.0 |
| 20260901142009 | 80 | 198 | 9.0 | 13.0 | 0.00 | 0.00 | 0.00 | 50 | 1013.9 |
| 20260901141509 | 80 | 196 | 7.0 | 14.0 | 0.00 | 0.00 | 0.00 | 51 | 1013.9 |
| 20260901141013 | 80 | 172 | 8.0 | 16.0 | 0.00 | 0.00 | 0.00 | 51 | 1014.0 |
| 20260901140509 | 79 | 156 | 5.0 | 13.0 | 0.00 | 0.00 | 0.00 | 52 | 1014.0 |
| 20260901135511 | 79 | 199 | 6.0 | 13.0 | 0.00 | 0.00 | 0.00 | 52 | 1014.0 |
| 20260901135006 | 79 | 186 | 7.0 | 13.0 | 0.00 | 0.00 | 0.00 | 52 | 1014.0 |
| 20260901134510 | 79 | 187 | 7.0 | 14.0 | 0.00 | 0.00 | 0.00 | 53 | 1014.2 |
| 20260901134005 | 79 | 193 | 8.0 | 14.0 | 0.00 | 0.00 | 0.00 | 53 | 1014.1 |
| 20260901133505 | 78 | 175 | 5.0 | 11.0 | 0.00 | 0.00 | 0.00 | 53 | 1014.1 |
| 20260901133006 | 78 | 131 | 5.0 | 9.0 | 0.00 | 0.00 | 0.00 | 53 | 1014.1 |
| 20260901132504 | 78 | 158 | 4.0 | 9.0 | 0.00 | 0.00 | 0.00 | 54 | 1013.9 |
| 20260901132003 | 78 | 180 | 4.0 | 9.0 | 0.00 | 0.00 | 0.00 | 54 | 1013.9 |
| 20260901131504 | 77 | 170 | 5.0 | 9.0 | 0.00 | 0.00 | 0.00 | 54 | 1014.0 |
| 20260901131004 | 77 | 164 | 4.0 | 7.0 | 0.00 | 0.00 | 0.00 | 54 | 1013.9 |
| 20260901130504 | 77 | 191 | 3.0 | 8.0 | 0.00 | 0.00 | 0.00 | 54 | 1013.9 |
| 20260901125501 | 77 | 179 | 3.0 | 5.0 | 0.00 | 0.00 | 0.00 | 54 | 1013.8 |
| 20260901125101 | 77 | 181 | 3.0 | 6.0 | 0.00 | 0.00 | 0.00 | 54 | 1013.9 |
| 20260901124601 | 77 | 187 | 3.0 | 9.0 | 0.00 | 0.00 | 0.00 | 54 | 1013.7 |
| 20260901124100 | 77 | 158 | 4.0 | 9.0 | 0.00 | 0.00 | 0.00 | 54 | 1013.8 |
| 20260901123600 | 77 | 184 | 4.0 | 10.0 | 0.00 | 0.00 | 0.00 | 54 | 1013.8 |
| 20260901123058 | 78 | 168 | 5.0 | 10.0 | 0.00 | 0.00 | 0.00 | 53 | 1013.7 |
| 20260901122558 | 78 | 202 | 5.0 | 10.0 | 0.00 | 0.00 | 0.00 | 53 | 1013.4 |
| 20260901122057 | 78 | 165 | 6.0 | 10.0 | 0.00 | 0.00 | 0.00 | 53 | 1013.4 |
| 20260901121603 | 78 | 172 | 4.0 | 8.0 | 0.00 | 0.00 | 0.00 | 53 | 1013.3 |
| 20260901121054 | 78 | 188 | 5.0 | 8.0 | 0.00 | 0.00 | 0.00 | 53 | 1013.2 |
| 20260901120554 | 78 | 162 | 5.0 | 10.0 | 0.00 | 0.00 | 0.00 | 53 | 1013.2 |
| 20260901120153 | 78 | 171 | 6.0 | 13.0 | 0.00 | 0.00 | 0.00 | 52 | 1013.3 |
| 20260901115552 | 78 | 177 | 5.0 | 12.0 | 0.00 | 0.00 | 0.00 | 52 | 1013.4 |
| 20260901115056 | 78 | 175 | 4.0 | 12.0 | 0.00 | 0.00 | 0.00 | 52 | 1013.3 |
| 20260901114551 | 79 | 185 | 5.0 | 10.0 | 0.00 | 0.00 | 0.00 | 52 | 1013.3 |
| 20260901114052 | 79 | 187 | 5.0 | 10.0 | 0.00 | 0.00 | 0.00 | 52 | 1013.2 |
| 20260901113548 | 79 | 164 | 4.0 | 10.0 | 0.00 | 0.00 | 0.00 | 51 | 1013.2 |
| 20260901113047 | 79 | 185 | 5.0 | 11.0 | 0.00 | 0.00 | 0.00 | 51 | 1013.2 |
| 20260901112546 | 79 | 181 | 5.0 | 10.0 | 0.00 | 0.00 | 0.00 | 51 | 1013.3 |
| 20260901112044 | 79 | 185 | 5.0 | 11.0 | 0.00 | 0.00 | 0.00 | 51 | 1013.3 |
| 20260901111549 | 79 | 197 | 4.0 | 11.0 | 0.00 | 0.00 | 0.00 | 51 | 1013.3 |
| 20260901111043 | 79 | 169 | 5.0 | 12.0 | 0.00 | 0.00 | 0.00 | 50 | 1013.3 |
| 20260901110542 | 79 | 168 | 6.0 | 12.0 | 0.00 | 0.00 | 0.00 | 50 | 1013.3 |
| 20260901110142 | 80 | 183 | 6.0 | 11.0 | 0.00 | 0.00 | 0.00 | 50 | 1013.2 |
| 20260901105043 | 80 | 187 | 5.0 | 12.0 | 0.00 | 0.00 | 0.00 | 49 | 1013.1 |
| 20260901104543 | 80 | 171 | 7.0 | 12.0 | 0.00 | 0.00 | 0.00 | 49 | 1013.1 |
| 20260901104046 | 80 | 185 | 5.0 | 12.0 | 0.00 | 0.00 | 0.00 | 49 | 1013.1 |
| 20260901103541 | 80 | 173 | 6.0 | 12.0 | 0.00 | 0.00 | 0.00 | 49 | 1013.1 |
| 20260901103044 | 80 | 190 | 5.0 | 10.0 | 0.00 | 0.00 | 0.00 | 49 | 1013.0 |
| 20260901102541 | 80 | 193 | 6.0 | 10.0 | 0.00 | 0.00 | 0.00 | 49 | 1013.0 |
| 20260901102040 | 80 | 161 | 6.0 | 10.0 | 0.00 | 0.00 | 0.00 | 48 | 1013.0 |
| 20260901101540 | 80 | 189 | 4.0 | 10.0 | 0.00 | 0.00 | 0.00 | 48 | 1013.0 |
| 20260901101041 | 81 | 189 | 5.0 | 11.0 | 0.00 | 0.00 | 0.00 | 48 | 1012.8 |
| 20260901100541 | 81 | 173 | 5.0 | 16.0 | 0.00 | 0.00 | 0.00 | 46 | 1012.8 |
| 20260901100139 | 81 | 173 | 5.0 | 16.0 | 0.00 | 0.00 | 0.00 | 46 | 1012.7 |
| 20260901095535 | 81 | 182 | 4.0 | 16.0 | 0.00 | 0.00 | 0.00 | 46 | 1012.6 |
| 20260901095035 | 81 | 166 | 6.0 | 16.0 | 0.00 | 0.00 | 0.00 | 46 | 1012.6 |
| 20260901094535 | 81 | 169 | 6.0 | 14.0 | 0.00 | 0.00 | 0.00 | 46 | 1012.6 |
| 20260901094135 | 81 | 178 | 6.0 | 15.0 | 0.00 | 0.00 | 0.00 | 45 | 1012.6 |
| 20260901093533 | 81 | 156 | 6.0 | 15.0 | 0.00 | 0.00 | 0.00 | 45 | 1012.6 |
| 20260901093033 | 81 | 185 | 4.0 | 10.0 | 0.00 | 0.00 | 0.00 | 44 | 1012.6 |
| 20260901092533 | 82 | 194 | 5.0 | 10.0 | 0.00 | 0.00 | 0.00 | 44 | 1012.7 |
| 20260901092032 | 82 | 197 | 5.0 | 11.0 | 0.00 | 0.00 | 0.00 | 43 | 1012.6 |
| 20260901091533 | 82 | 202 | 8.0 | 11.0 | 0.00 | 0.00 | 0.00 | 43 | 1012.7 |
| 20260901091031 | 82 | 146 | 6.0 | 11.0 | 0.00 | 0.00 | 0.00 | 42 | 1012.7 |
| 20260901090530 | 82 | 200 | 4.0 | 10.0 | 0.00 | 0.00 | 0.00 | 41 | 1012.7 |
| 20260901090130 | 82 | 171 | 4.0 | 10.0 | 0.00 | 0.00 | 0.00 | 40 | 1012.7 |
| 20260901085529 | 82 | 184 | 4.0 | 11.0 | 0.00 | 0.00 | 0.00 | 40 | 1012.7 |
| 20260901085029 | 82 | 168 | 6.0 | 13.0 | 0.00 | 0.00 | 0.00 | 41 | 1012.7 |
| 20260901084528 | 82 | 152 | 6.0 | 15.0 | 0.00 | 0.00 | 0.00 | 40 | 1012.7 |
| 20260901084028 | 82 | 180 | 8.0 | 15.0 | 0.00 | 0.00 | 0.00 | 40 | 1012.7 |
| 20260901083531 | 83 | 200 | 5.0 | 12.0 | 0.00 | 0.00 | 0.00 | 40 | 1012.6 |
| 20260901083026 | 83 | 190 | 5.0 | 12.0 | 0.00 | 0.00 | 0.00 | 39 | 1012.7 |
| 20260901082526 | 83 | 181 | 6.0 | 12.0 | 0.00 | 0.00 | 0.00 | 39 | 1012.7 |
| 20260901082027 | 83 | 187 | 5.0 | 12.0 | 0.00 | 0.00 | 0.00 | 38 | 1012.7 |
| 20260901081525 | 83 | 175 | 7.0 | 15.0 | 0.00 | 0.00 | 0.00 | 38 | 1012.6 |
| 20260901081025 | 83 | 162 | 8.0 | 15.0 | 0.00 | 0.00 | 0.00 | 38 | 1012.6 |